Regional Weather Roundup
Issued by NWS

Current Version | Previous Version | Text Only | Print | Product List | Glossary On
Versions: 1 2 3 4 5 6 7 8 9 10 11 12 13 14 15 16 17 18 19 20 21 22 23 24 25 26 27
000
ASPQ40 PGUM 172112
RWRPQ
WEATHER ROUNDUP FOR THE MARIANAS AND MICRONESIA
NATIONAL WEATHER SERVICE TIYAN GU
700 AM CHST SAT NOV 18 2017

GUZ001>004-172200-
MARIANA ISLANDS-

CITY           SKY/WX    TMP DP  RH WIND       PRES   REMARKS
GUAM AIRPORT   PTCLDY    81  79  94 E13       29.82R
ANDERSEN AFB   PTCLDY    81  75  83 E14       29.83R
ROTA AIRPORT   NOT AVBL
TINIAN AP      MOCLDY    82  77  83 E12       29.81R HX  91
SAIPAN AP      PTCLDY    82  79  89 E15       29.82R HX  93

$$

PMZ161-172200-
REPUBLIC OF PALAU-

CITY           SKY/WX    TMP DP  RH WIND       PRES   REMARKS
KOROR AP       MOCLDY    75  73  94 CALM      29.76R
KOROR WSO      CLOUDY    77  75  94 NW7       29.78R

$$

PMZ171>174-172200-
FEDERATED STATES OF MICRONESIA-

CITY           SKY/WX    TMP DP  RH WIND       PRES   REMARKS
YAP AIRPORT    MOCLDY    81  77  89 VRB6      29.76R
CHUUK AP       CLOUDY    81  77  89 VRB5      29.76S
POHNPEI AP     CLOUDY    79  73  83 S5        29.78R
POHNPEI WSO    MOSUNNY   79  75  89 SE5       29.81R
KOSRAE AP      NOT AVBL

$$

PMZ181-172200-
REPUBLIC OF THE MARSHALL ISLANDS-

CITY           SKY/WX    TMP DP  RH WIND       PRES   REMARKS
KWAJALEIN AP   MOSUNNY   84  79  84 E9        29.80R HX  96
MAJURO AP      PTSUNNY   84  79  84 NE10      29.78S HX  96
MAJURO WSO     NOT AVBL

$$





USA.gov is the U.S. government's official web portal to all federal, state and local government web resources and services.